Location: Zerbst
(51.9650°N, 12.0766°E)
Time: 11:46:21
(UTC+02:00)

ISS - Pass Details

Date: 19 May 2017
Orbit: 402 x 409 km, 51.6° (Epoch: 24 May)

Event Time Altitude Azimuth Distance (km) Brightness Sun altitude
Exits shadow 01:33:36 28° 112° (ESE) 791 -2.5 -18.1°
Drops below altitude 10° 01:35:37 10° 86° (E) 1,467 -0.9 -18.0°
Sets 01:37:47 0° 78° (ENE) 2,328 0.3 -18.0°
